| time (UTC) | temp C | wind direction | speed KPH | gust KPH | rain 1hr cm | rain 24hr cm | rain mn cm | humidity % | barometer mb |
| 20260503232147 | 16 | 322 | 0.0 | 0.0 | 0.00 | 0.00 | 0.00 | 39 | 1014.1 |
| 20260503231640 | 16 | 322 | 0.0 | 1.6 | 0.00 | 0.00 | 0.00 | 39 | 1014.0 |
| 20260503231352 | 17 | 322 | 0.0 | 1.6 | 0.00 | 0.00 | 0.00 | 35 | 1014.0 |
| 20260503230628 | 17 | 258 | 0.0 | 1.6 | 0.00 | 0.00 | 0.00 | 35 | 1014.0 |
| 20260503230122 | 17 | 258 | 0.0 | 3.2 | 0.00 | 0.00 | 0.00 | 34 | 1014.0 |
| 20260503225615 | 17 | 252 | 0.0 | 3.2 | 0.00 | 0.00 | 0.00 | 33 | 1013.9 |
| 20260503225111 | 17 | 254 | 1.6 | 4.8 | 0.00 | 0.00 | 0.00 | 31 | 1014.0 |
| 20260503224603 | 16 | 228 | 1.6 | 8.0 | 0.00 | 0.00 | 0.00 | 29 | 1014.0 |
| 20260503224058 | 16 | 335 | 1.6 | 8.0 | 0.00 | 0.00 | 0.00 | 29 | 1014.1 |
| 20260503223814 | 17 | 38 | 1.6 | 6.4 | 0.00 | 0.00 | 0.00 | 29 | 1014.0 |
| 20260503223051 | 17 | 0 | 1.6 | 6.4 | 0.00 | 0.00 | 0.00 | 28 | 1014.1 |
| 20260503222541 | 17 | 24 | 1.6 | 9.7 | 0.00 | 0.00 | 0.00 | 29 | 1014.0 |
| 20260503222034 | 17 | 229 | 3.2 | 9.7 | 0.00 | 0.00 | 0.00 | 28 | 1014.1 |
| 20260503221753 | 17 | 205 | 3.2 | 8.0 | 0.00 | 0.00 | 0.00 | 29 | 1014.1 |
| 20260503221022 | 17 | 55 | 1.6 | 11.3 | 0.00 | 0.00 | 0.00 | 28 | 1014.1 |
| 20260503220516 | 17 | 256 | 1.6 | 11.3 | 0.00 | 0.00 | 0.00 | 28 | 1014.2 |
| 20260503220235 | 17 | 267 | 1.6 | 6.4 | 0.00 | 0.00 | 0.00 | 28 | 1014.2 |
| 20260503215505 | 17 | 346 | 3.2 | 11.3 | 0.00 | 0.00 | 0.00 | 30 | 1014.1 |
| 20260503215215 | 17 | 69 | 3.2 | 11.3 | 0.00 | 0.00 | 0.00 | 30 | 1014.2 |
| 20260503214452 | 17 | 145 | 3.2 | 9.7 | 0.00 | 0.00 | 0.00 | 29 | 1014.2 |
| 20260503213947 | 17 | 92 | 1.6 | 6.4 | 0.00 | 0.00 | 0.00 | 28 | 1014.2 |
| 20260503213443 | 17 | 244 | 3.2 | 6.4 | 0.00 | 0.00 | 0.00 | 29 | 1014.1 |
| 20260503212944 | 17 | 63 | 3.2 | 6.4 | 0.00 | 0.00 | 0.00 | 27 | 1014.2 |
| 20260503212444 | 17 | 346 | 3.2 | 8.0 | 0.00 | 0.00 | 0.00 | 29 | 1014.3 |
| 20260503211943 | 17 | 279 | 3.2 | 12.9 | 0.00 | 0.00 | 0.00 | 29 | 1014.2 |
| 20260503211441 | 17 | 244 | 4.8 | 20.9 | 0.00 | 0.00 | 0.00 | 29 | 1014.3 |
| 20260503210941 | 17 | 294 | 4.8 | 20.9 | 0.00 | 0.00 | 0.00 | 28 | 1014.3 |
| 20260503210703 | 17 | 217 | 4.8 | 17.7 | 0.00 | 0.00 | 0.00 | 29 | 1014.3 |
| 20260503205941 | 17 | 295 | 3.2 | 11.3 | 0.00 | 0.00 | 0.00 | 28 | 1014.4 |
| 20260503205443 | 17 | 215 | 3.2 | 11.3 | 0.00 | 0.00 | 0.00 | 30 | 1014.3 |
| 20260503204942 | 17 | 230 | 3.2 | 11.3 | 0.00 | 0.00 | 0.00 | 29 | 1014.3 |
| 20260503204441 | 17 | 72 | 1.6 | 8.0 | 0.00 | 0.00 | 0.00 | 31 | 1014.4 |
| 20260503204206 | 17 | 113 | 3.2 | 9.7 | 0.00 | 0.00 | 0.00 | 30 | 1014.4 |
| 20260503203441 | 17 | 43 | 3.2 | 14.5 | 0.00 | 0.00 | 0.00 | 30 | 1014.5 |
| 20260503202943 | 17 | 22 | 4.8 | 14.5 | 0.00 | 0.00 | 0.00 | 29 | 1014.6 |
| 20260503202441 | 18 | 19 | 3.2 | 12.9 | 0.00 | 0.00 | 0.00 | 29 | 1014.6 |
| 20260503201940 | 17 | 190 | 3.2 | 12.9 | 0.00 | 0.00 | 0.00 | 31 | 1014.7 |
| 20260503201443 | 17 | 217 | 3.2 | 14.5 | 0.00 | 0.00 | 0.00 | 29 | 1014.7 |
| 20260503200938 | 17 | 186 | 3.2 | 14.5 | 0.00 | 0.00 | 0.00 | 29 | 1014.8 |
| 20260503200432 | 18 | 275 | 3.2 | 14.5 | 0.00 | 0.00 | 0.00 | 28 | 1014.8 |
| 20260503195925 | 18 | 257 | 3.2 | 12.9 | 0.00 | 0.00 | 0.00 | 30 | 1014.9 |
| 20260503195637 | 18 | 237 | 3.2 | 9.7 | 0.00 | 0.00 | 0.00 | 29 | 1014.9 |
| 20260503194914 | 17 | 55 | 3.2 | 12.9 | 0.00 | 0.00 | 0.00 | 31 | 1015.0 |
| 20260503194407 | 17 | 76 | 3.2 | 12.9 | 0.00 | 0.00 | 0.00 | 29 | 1015.3 |
| 20260503194124 | 17 | 150 | 3.2 | 14.5 | 0.00 | 0.00 | 0.00 | 30 | 1015.3 |
| 20260503193355 | 17 | 296 | 4.8 | 14.5 | 0.00 | 0.00 | 0.00 | 32 | 1015.4 |
| 20260503193119 | 17 | 213 | 4.8 | 14.5 | 0.00 | 0.00 | 0.00 | 29 | 1015.4 |
| 20260503192343 | 18 | 298 | 3.2 | 14.5 | 0.00 | 0.00 | 0.00 | 26 | 1015.5 |
| 20260503191838 | 18 | 325 | 3.2 | 6.4 | 0.00 | 0.00 | 0.00 | 29 | 1015.5 |
| 20260503191333 | 17 | 333 | 3.2 | 11.3 | 0.00 | 0.00 | 0.00 | 31 | 1015.6 |
| 20260503190827 | 17 | 338 | 4.8 | 17.7 | 0.00 | 0.00 | 0.00 | 32 | 1015.7 |
| 20260503190319 | 17 | 252 | 3.2 | 17.7 | 0.00 | 0.00 | 0.00 | 29 | 1015.7 |
| 20260503185815 | 18 | 338 | 3.2 | 14.5 | 0.00 | 0.00 | 0.00 | 29 | 1015.8 |
| 20260503185308 | 18 | 281 | 3.2 | 14.5 | 0.00 | 0.00 | 0.00 | 30 | 1015.8 |
| 20260503184800 | 17 | 240 | 3.2 | 14.5 | 0.00 | 0.00 | 0.00 | 31 | 1016.0 |
| 20260503184255 | 17 | 124 | 3.2 | 12.9 | 0.00 | 0.00 | 0.00 | 31 | 1016.0 |
| 20260503183751 | 17 | 251 | 4.8 | 14.5 | 0.00 | 0.00 | 0.00 | 29 | 1016.0 |
| 20260503183252 | 18 | 310 | 4.8 | 14.5 | 0.00 | 0.00 | 0.00 | 31 | 1016.2 |
| 20260503182754 | 18 | 230 | 3.2 | 14.5 | 0.00 | 0.00 | 0.00 | 32 | 1016.0 |
| 20260503182249 | 17 | 166 | 3.2 | 9.7 | 0.00 | 0.00 | 0.00 | 33 | 1015.9 |
| 20260503181749 | 17 | 214 | 3.2 | 9.7 | 0.00 | 0.00 | 0.00 | 30 | 1016.1 |
| 20260503181250 | 17 | 306 | 4.8 | 9.7 | 0.00 | 0.00 | 0.00 | 30 | 1016.2 |
| 20260503180748 | 17 | 53 | 3.2 | 9.7 | 0.00 | 0.00 | 0.00 | 30 | 1016.3 |
| 20260503180250 | 16 | 91 | 4.8 | 14.5 | 0.00 | 0.00 | 0.00 | 31 | 1016.3 |
| 20260503175748 | 15 | 25 | 4.8 | 14.5 | 0.00 | 0.00 | 0.00 | 34 | 1016.3 |
| 20260503175250 | 15 | 294 | 3.2 | 11.3 | 0.00 | 0.00 | 0.00 | 32 | 1016.4 |
| 20260503175238 | 14 | 273 | 4.8 | 14.5 | 0.00 | 0.00 | 0.00 | 34 | 1016.5 |
| 20260503174249 | 15 | 115 | 4.8 | 14.5 | 0.00 | 0.00 | 0.00 | 32 | 1016.4 |
| 20260503174009 | 16 | 292 | 6.4 | 20.9 | 0.00 | 0.00 | 0.00 | 33 | 1016.6 |
| 20260503173250 | 15 | 285 | 4.8 | 20.9 | 0.00 | 0.00 | 0.00 | 34 | 1016.4 |
| 20260503172746 | 15 | 273 | 3.2 | 11.3 | 0.00 | 0.00 | 0.00 | 33 | 1016.5 |
| 20260503172245 | 15 | 247 | 3.2 | 17.7 | 0.00 | 0.00 | 0.00 | 33 | 1016.6 |
| 20260503171745 | 15 | 355 | 3.2 | 17.7 | 0.00 | 0.00 | 0.00 | 32 | 1016.6 |
| 20260503171513 | 15 | 231 | 4.8 | 16.1 | 0.00 | 0.00 | 0.00 | 33 | 1016.7 |
| 20260503170745 | 15 | 173 | 4.8 | 16.1 | 0.00 | 0.00 | 0.00 | 33 | 1016.6 |
| 20260503170245 | 15 | 20 | 4.8 | 12.9 | 0.00 | 0.00 | 0.00 | 34 | 1016.7 |
| 20260503150737 | 11 | 238 | 6.4 | 19.3 | 0.00 | 0.00 | 0.00 | 40 | 1017.5 |
| 20260503150237 | 11 | 88 | 4.8 | 19.3 | 0.00 | 0.00 | 0.00 | 42 | 1017.5 |
| 20260503140232 | 9 | 320 | 3.2 | 16.1 | 0.00 | 0.00 | 0.00 | 50 | 1017.7 |
| 20260503131215 | 7 | 256 | 1.6 | 6.4 | 0.00 | 0.00 | 0.00 | 59 | 1017.7 |
| 20260503130708 | 7 | 150 | 3.2 | 17.7 | 0.00 | 0.00 | 0.00 | 59 | 1017.8 |
| 20260503130424 | 7 | 227 | 3.2 | 17.7 | 0.00 | 0.00 | 0.00 | 60 | 1017.8 |
| 20260503110446 | 4 | 34 | 0.0 | 1.6 | 0.00 | 0.00 | 0.00 | 75 | 1016.5 |
| 20260503090313 | 5 | 32 | 0.0 | 4.8 | 0.00 | 0.00 | 0.00 | 69 | 1015.1 |
| 20260503081257 | 6 | 42 | 0.0 | 1.6 | 0.00 | 0.00 | 0.00 | 67 | 1014.7 |
| 20260503080752 | 6 | 42 | 0.0 | 0.0 | 0.00 | 0.00 | 0.00 | 67 | 1014.7 |
| 20260503080251 | 6 | 42 | 0.0 | 0.0 | 0.00 | 0.00 | 0.00 | 66 | 1014.7 |
| 20260503072742 | 6 | 65 | 0.0 | 3.2 | 0.00 | 0.00 | 0.00 | 63 | 1014.7 |
| 20260503072243 | 7 | 58 | 0.0 | 1.6 | 0.00 | 0.00 | 0.00 | 63 | 1014.6 |
| 20260503071745 | 7 | 53 | 0.0 | 3.2 | 0.00 | 0.00 | 0.00 | 63 | 1014.5 |
| 20260503071243 | 7 | 0 | 0.0 | 3.2 | 0.00 | 0.00 | 0.00 | 63 | 1014.5 |
| 20260503070744 | 7 | 285 | 1.6 | 3.2 | 0.00 | 0.00 | 0.00 | 63 | 1014.4 |
| 20260503070238 | 7 | 285 | 1.6 | 6.4 | 0.00 | 0.00 | 0.00 | 62 | 1014.3 |
| 20260503060237 | 8 | 355 | 1.6 | 6.4 | 0.00 | 0.00 | 0.00 | 60 | 1014.1 |
| 20260503054738 | 8 | 66 | 1.6 | 8.0 | 0.00 | 0.00 | 0.00 | 59 | 1014.2 |
| 20260503054239 | 8 | 24 | 1.6 | 3.2 | 0.00 | 0.00 | 0.00 | 58 | 1014.1 |
| 20260503053737 | 8 | 314 | 1.6 | 4.8 | 0.00 | 0.00 | 0.00 | 58 | 1014.1 |
| 20260503053231 | 8 | 107 | 1.6 | 4.8 | 0.00 | 0.00 | 0.00 | 57 | 1014.2 |
| 20260503052724 | 8 | 51 | 1.6 | 6.4 | 0.00 | 0.00 | 0.00 | 57 | 1014.1 |
| 20260503052218 | 9 | 0 | 1.6 | 6.4 | 0.00 | 0.00 | 0.00 | 56 | 1014.1 |
| 20260503051712 | 9 | 49 | 1.6 | 4.8 | 0.00 | 0.00 | 0.00 | 56 | 1014.2 |
| 20260503051206 | 9 | 355 | 1.6 | 6.4 | 0.00 | 0.00 | 0.00 | 55 | 1014.2 |
| 20260503050708 | 9 | 57 | 1.6 | 6.4 | 0.00 | 0.00 | 0.00 | 55 | 1014.1 |
| 20260503050207 | 9 | 36 | 3.2 | 8.0 | 0.00 | 0.00 | 0.00 | 55 | 1014.1 |
| 20260503045926 | 9 | 92 | 3.2 | 8.0 | 0.00 | 0.00 | 0.00 | 55 | 1014.1 |
| 20260503045205 | 9 | 16 | 1.6 | 8.0 | 0.00 | 0.00 | 0.00 | 55 | 1014.1 |
| 20260503045153 | 10 | 26 | 3.2 | 8.0 | 0.00 | 0.00 | 0.00 | 54 | 1014.1 |
| 20260503044204 | 10 | 51 | 3.2 | 6.4 | 0.00 | 0.00 | 0.00 | 54 | 1014.2 |
| 20260503043704 | 10 | 101 | 1.6 | 6.4 | 0.00 | 0.00 | 0.00 | 54 | 1014.2 |
| 20260503043203 | 10 | 86 | 3.2 | 6.4 | 0.00 | 0.00 | 0.00 | 54 | 1014.2 |
| 20260503042701 | 10 | 307 | 3.2 | 8.0 | 0.00 | 0.00 | 0.00 | 54 | 1014.2 |
| 20260503042201 | 10 | 31 | 3.2 | 8.0 | 0.00 | 0.00 | 0.00 | 54 | 1014.1 |
| 20260503041702 | 10 | 77 | 1.6 | 8.0 | 0.00 | 0.00 | 0.00 | 54 | 1014.1 |
| 20260503041158 | 10 | 100 | 1.6 | 6.4 | 0.00 | 0.00 | 0.00 | 53 | 1014.1 |
| 20260503040657 | 10 | 138 | 1.6 | 8.0 | 0.00 | 0.00 | 0.00 | 53 | 1014.1 |
| 20260503040200 | 10 | 71 | 3.2 | 8.0 | 0.00 | 0.00 | 0.00 | 53 | 1014.0 |
| 20260503035658 | 10 | 65 | 1.6 | 6.4 | 0.00 | 0.00 | 0.00 | 53 | 1014.0 |
| 20260503035158 | 10 | 52 | 3.2 | 8.0 | 0.00 | 0.00 | 0.00 | 53 | 1014.0 |
| 20260503034656 | 10 | 302 | 3.2 | 8.0 | 0.00 | 0.00 | 0.00 | 52 | 1013.9 |
| 20260503034157 | 10 | 65 | 3.2 | 8.0 | 0.00 | 0.00 | 0.00 | 52 | 1013.9 |
| 20260503033653 | 10 | 50 | 3.2 | 8.0 | 0.00 | 0.00 | 0.00 | 53 | 1013.8 |
| 20260503033420 | 11 | 43 | 3.2 | 9.7 | 0.00 | 0.00 | 0.00 | 52 | 1013.8 |
| 20260503032653 | 11 | 62 | 3.2 | 9.7 | 0.00 | 0.00 | 0.00 | 52 | 1013.7 |
| 20260503032419 | 11 | 96 | 3.2 | 11.3 | 0.00 | 0.00 | 0.00 | 53 | 1013.6 |
| 20260503031654 | 11 | 55 | 1.6 | 11.3 | 0.00 | 0.00 | 0.00 | 53 | 1013.6 |
| 20260503031415 | 11 | 57 | 1.6 | 8.0 | 0.00 | 0.00 | 0.00 | 54 | 1013.6 |
| 20260503030651 | 11 | 59 | 1.6 | 4.8 | 0.00 | 0.00 | 0.00 | 54 | 1013.5 |
| 20260503030151 | 11 | 47 | 0.0 | 6.4 | 0.00 | 0.00 | 0.00 | 53 | 1013.7 |
| 20260503025646 | 11 | 47 | 0.0 | 6.4 | 0.00 | 0.00 | 0.00 | 53 | 1013.7 |
| 20260503025147 | 11 | 53 | 1.6 | 4.8 | 0.00 | 0.00 | 0.00 | 53 | 1013.7 |
| 20260503024646 | 11 | 57 | 1.6 | 4.8 | 0.00 | 0.00 | 0.00 | 53 | 1013.7 |
| 20260503024147 | 11 | 67 | 0.0 | 4.8 | 0.00 | 0.00 | 0.00 | 54 | 1013.6 |
| 20260503023644 | 11 | 66 | 0.0 | 3.2 | 0.00 | 0.00 | 0.00 | 54 | 1013.7 |
| 20260503023146 | 11 | 24 | 0.0 | 3.2 | 0.00 | 0.00 | 0.00 | 54 | 1013.7 |
| 20260503022646 | 11 | 53 | 0.0 | 3.2 | 0.00 | 0.00 | 0.00 | 54 | 1013.6 |
| 20260503022144 | 11 | 53 | 0.0 | 4.8 | 0.00 | 0.00 | 0.00 | 53 | 1013.7 |
| 20260503021644 | 11 | 61 | 0.0 | 4.8 | 0.00 | 0.00 | 0.00 | 53 | 1013.7 |
| 20260503021411 | 11 | 63 | 0.0 | 1.6 | 0.00 | 0.00 | 0.00 | 54 | 1013.7 |
| 20260503020642 | 11 | 63 | 0.0 | 3.2 | 0.00 | 0.00 | 0.00 | 54 | 1013.7 |
| 20260503020359 | 11 | 63 | 0.0 | 3.2 | 0.00 | 0.00 | 0.00 | 53 | 1013.7 |
| 20260503015641 | 12 | 338 | 0.0 | 1.6 | 0.00 | 0.00 | 0.00 | 53 | 1013.6 |
| 20260503015405 | 12 | 338 | 0.0 | 4.8 | 0.00 | 0.00 | 0.00 | 53 | 1013.6 |
| 20260503014643 | 12 | 333 | 0.0 | 4.8 | 0.00 | 0.00 | 0.00 | 53 | 1013.5 |
| 20260503014142 | 12 | 50 | 0.0 | 3.2 | 0.00 | 0.00 | 0.00 | 53 | 1013.4 |
| 20260503013637 | 12 | 25 | 0.0 | 1.6 | 0.00 | 0.00 | 0.00 | 54 | 1013.5 |
| 20260503013135 | 12 | 25 | 1.6 | 3.2 | 0.00 | 0.00 | 0.00 | 54 | 1013.4 |
| 20260503012638 | 12 | 13 | 0.0 | 4.8 | 0.00 | 0.00 | 0.00 | 53 | 1013.2 |
| 20260503012131 | 12 | 53 | 0.0 | 3.2 | 0.00 | 0.00 | 0.00 | 53 | 1013.2 |
| 20260503011626 | 12 | 55 | 0.0 | 1.6 | 0.00 | 0.00 | 0.00 | 53 | 1013.1 |
| 20260503011120 | 12 | 55 | 0.0 | 1.6 | 0.00 | 0.00 | 0.00 | 52 | 1013.1 |
| 20260503010614 | 12 | 53 | 0.0 | 3.2 | 0.00 | 0.00 | 0.00 | 52 | 1013.0 |
| 20260503010107 | 12 | 49 | 0.0 | 3.2 | 0.00 | 0.00 | 0.00 | 51 | 1013.0 |
| 20260503005601 | 12 | 88 | 0.0 | 3.2 | 0.00 | 0.00 | 0.00 | 49 | 1012.9 |
| 20260503005055 | 12 | 86 | 0.0 | 1.6 | 0.00 | 0.00 | 0.00 | 50 | 1012.8 |
| 20260503004551 | 13 | 86 | 0.0 | 1.6 | 0.00 | 0.00 | 0.00 | 49 | 1012.7 |
| 20260503004044 | 13 | 86 | 0.0 | 1.6 | 0.00 | 0.00 | 0.00 | 49 | 1012.5 |
| 20260503003538 | 13 | 86 | 0.0 | 0.0 | 0.00 | 0.00 | 0.00 | 48 | 1012.4 |
| 20260503003031 | 13 | 86 | 0.0 | 3.2 | 0.00 | 0.00 | 0.00 | 47 | 1012.4 |
| 20260503002526 | 13 | 86 | 0.0 | 3.2 | 0.00 | 0.00 | 0.00 | 46 | 1012.2 |
| 20260503002020 | 13 | 88 | 1.6 | 4.8 | 0.00 | 0.00 | 0.00 | 46 | 1012.2 |
| 20260503001513 | 13 | 45 | 1.6 | 8.0 | 0.00 | 0.00 | 0.00 | 45 | 1012.2 |
| 20260503001008 | 13 | 71 | 1.6 | 8.0 | 0.00 | 0.00 | 0.00 | 44 | 1012.1 |
| 20260503000502 | 13 | 16 | 1.6 | 6.4 | 0.00 | 0.00 | 0.00 | 44 | 1012.1 |
| 20260503000220 | 13 | 74 | 1.6 | 6.4 | 0.00 | 0.00 | 0.00 | 44 | 1012.1 |
| 20260502235450 | 13 | 120 | 1.6 | 8.0 | 0.00 | 0.00 | 0.00 | 44 | 1011.9 |
| 20260502234943 | 13 | 72 | 1.6 | 8.0 | 0.00 | 0.00 | 0.00 | 44 | 1011.8 |
| 20260502234437 | 14 | 96 | 1.6 | 3.2 | 0.00 | 0.00 | 0.00 | 43 | 1011.8 |
| 20260502233931 | 14 | 97 | 1.6 | 3.2 | 0.00 | 0.00 | 0.00 | 42 | 1011.7 |
| 20260502233426 | 14 | 117 | 1.6 | 4.8 | 0.00 | 0.00 | 0.00 | 42 | 1011.6 |
| 20260502232920 | 14 | 95 | 1.6 | 4.8 | 0.00 | 0.00 | 0.00 | 42 | 1011.6 |
| 20260502232413 | 14 | 250 | 1.6 | 4.8 | 0.00 | 0.00 | 0.00 | 41 | 1011.5 |